STARLINK-36844, 68117

Orbit data source: Space-Track

STARLINK-36844, 68117 is a payload satellite owned by SpaceX/Seattle (US) in SSO that was launched on Sun, 08 Mar 2026 UTC via an FALCON 9 launch vehicle from the Air Force Western Test Range (AFWTR). Payload-class satellites include a variety of spacecraft equipped with specific instruments for various scientific and technological missions. These include communications satellites like Starlink; space stations such as the ISS; scientific satellites like the Hubble; Earth observation satellites from companies like Planet Labs, Umbra, and HawkEye 360; GPS; miniature CubeSats for education and research; and military/defense satellites.

Loading next visibility...
Identifier
68117, 2026-044S
Orbit
SSO
Country
Flag of USUS
Related business
Manufacturer
SpaceX/Seattle
Mission
Operational spacecraft
Bus & Motor
STARLINK V2MO, Unknown motor
Mass
575 kg wet, ~530 kg dry
Launch date (UTC)
2026-03-08 (2 months ago)
Launch vehicle
FALCON 9
Launch site
Air Force Western Test Range (AFWTR)
Object type
Payload
Rocket body
Debris
Shape & HBR
Unknown shape, 17.7 m
Radar Cross Section
RCS unknown

Expand to show TLE details & history
Last TLE update: 9 hours ago

TLE from 9 hours ago
0 STARLINK-36844
1 68117U 26044S   26119.90194393  .00029201  00000-0  90270-3 0  9991
2 68117  97.2845  80.9192 0002339 110.0771 250.0724 15.33465311  9431
Epoch: 2026-04-29T21:38Z
TLE epoch observation values (Epoch: 2026-04-29T21:38:47.955Z)
Latitude
0.00001°
Longitude
-101.63686°
Altitude
469.141 km
Speed
7.631 km/s
True Right ascension
05h 23m 40s
True Declination
0° 00' 00"
Sunlit
Object was in daylight at epoch
Visualization orbit readout
Latitude
Unknown
Longitude
Unknown
Altitude
Unknown
Speed
Unknown
Apparent Right ascension
Unknown
Apparent Declination
Unknown
Sunlit
N/A
Visualization observer readout
Local Sidereal Time
14:31:05
Azimuth
Unknown
Elevation
Unknown
Doppler factor
Unknown
Orbital elements
Apogee altitude
464.025 km
Perigee altitude
460.825 km
Semi-major axis
6,840.562 km
Eccentricity
0.00023
Inclination
97.2845°
RAAN
80.9192°
Arg. of periapsis
110.0771°
True anomaly
250.0472°
Mean anomaly
250.0724°
Eccentric anomaly
250.0598°
Mean motion
3.83624 °/min
Orbital period
93.84 mins
BSTAR
0.0009027
Loading maneuver chart data...
Computing Atmospheric mass density...
Loading historical data...
Loading historical data...
Loading historical data...
Loading historical data...
Loading historical data...
Loading historical data...
Loading historical data...

Documentation

Showing up to 5 results
|